Location: 3 Angels Observatory
(30.5437°N, 88.5068°W)
Time: 14:55:38
(UTC-05:00)

Amateur Radio Satellites - All Passes

Search period start: 26 July 2016 14:25
Search period end: 27 July 2016 14:25
Location: 3 Angels Observatory, 30.5437°N, 88.5068°W

Satellite Date Start Highest point End Downlink Frequencies (MHz)
Time Altitude Azimuth
GONETS M04 26 Jul 14:34:18 14:41:04 26° 85° (E) 14:47:50
CUSAT 1 26 Jul 14:36:43 14:39:16 21° 82° (E) 14:42:17 437.405
AIST 1 26 Jul 14:37:01 14:39:58 18° 283° (WNW) 14:42:55
SWISSCUBE 26 Jul 14:39:26 14:43:45 34° 99° (E) 14:48:02 437.505
BEESAT 26 Jul 15:00:39 15:05:18 54° 101° (E) 15:09:56 436.000
TISAT 1 26 Jul 15:05:36 15:08:29 18° 290° (WNW) 15:11:21 437.305
ITUPSAT 1 26 Jul 15:23:06 15:27:53 85° 284° (WNW) 15:32:37 437.325
PHONESAT 2.4 26 Jul 15:26:22 15:27:46 13° 140° (SE) 15:29:11 2401.200-2431.200
Gurwin Techsat 1B 26 Jul 15:30:34 15:34:01 17° 265° (W) 15:37:29 435.225
AO-85 26 Jul 15:38:35 15:40:31 12° 311° (NW) 15:42:25 145.980
Cosmos 2499 26 Jul 15:46:15 15:54:56 63° 92° (E) 16:03:34 435.465 / 435.565
ITAMSAT 1 26 Jul 15:48:06 15:52:53 36° 261° (W) 15:57:41 435.822/435.867
AO-7 26 Jul 15:49:36 15:57:59 86° 72° (ENE) 16:06:24 29.400- 29.500
MOZHAYETS 4 26 Jul 15:49:52 15:53:09 19° 95° (E) 15:56:25
STARS 26 Jul 16:04:18 16:05:34 11° 94° (E) 16:06:49 437.465
RS-15 26 Jul 16:11:55 16:24:06 58° 58° (ENE) 16:35:57 29.354- 29.394
SWISSCUBE 26 Jul 16:18:00 16:21:15 19° 291° (WNW) 16:24:28 437.505
CUSAT 1 26 Jul 16:19:49 16:21:08 12° 264° (W) 16:22:33 437.405
GONETS M04 26 Jul 16:28:55 16:37:17 52° 280° (W) 16:45:43
DANDE 26 Jul 16:34:06 16:36:18 21° 264° (W) 16:38:44 436.750
BEESAT 26 Jul 16:40:46 16:42:33 12° 294° (WNW) 16:44:21 436.000
KKS-1 26 Jul 16:56:54 17:01:22 69° 285° (WNW) 17:05:49 437.445
SO-50 26 Jul 16:58:05 17:01:22 19° 53° (NE) 17:04:34 436.795
PHONESAT 2.4 26 Jul 17:00:55 17:03:58 69° 331° (NNW) 17:07:02 2401.200-2431.200
CUBESAT XI-V 26 Jul 17:07:35 17:10:16 15° 94° (E) 17:12:55 437.345
HORYU 2 26 Jul 17:13:10 17:17:39 89° 258° (WSW) 17:22:10 437.375
CUTE-I 26 Jul 17:22:48 17:26:06 17° 67° (ENE) 17:29:23 437.470
BRITE-PL 26 Jul 17:25:52 17:29:07 22° 72° (ENE) 17:32:19 437.365/2234.400
MOZHAYETS 4 26 Jul 17:26:21 17:30:16 29° 288° (WNW) 17:34:09
STARS 26 Jul 17:37:49 17:42:05 47° 286° (WNW) 17:46:20 437.465
LilacSat-2 26 Jul 17:40:55 17:43:27 17° 71° (ENE) 17:46:00 437.200
Cosmos 2499 26 Jul 17:41:46 17:48:27 24° 287° (WNW) 17:55:09 435.465 / 435.565
NOAA 15 26 Jul 17:43:41 17:48:28 37° 72° (ENE) 17:53:15 137.62
AO-7 26 Jul 17:47:18 17:51:25 14° 266° (W) 17:55:34 29.400- 29.500
NOAA 18 26 Jul 17:50:56 17:55:50 34° 70° (ENE) 18:00:45 137.9125
BEESAT 3 26 Jul 18:04:22 18:07:56 36° 113° (ESE) 18:11:34 437.485
BEESAT 2 26 Jul 18:09:48 18:12:43 20° 110° (ESE) 18:15:39 435.950
RS-15 26 Jul 18:25:19 18:35:55 36° 255° (WSW) 18:46:19 29.354- 29.394
DOVE 4 26 Jul 18:28:08 18:31:16 20° 70° (ENE) 18:34:31 437.250
GOMX 1 26 Jul 18:30:42 18:34:45 56° 76° (ENE) 18:38:54 467.674
Cubesat XI-IV 26 Jul 18:36:21 18:41:44 87° 256° (WSW) 18:47:09 437.490
SO-50 26 Jul 18:37:46 18:41:53 34° 248° (WSW) 18:45:54 436.795
PHONESAT 2.4 26 Jul 18:38:41 18:40:50 17° 347° (NNW) 18:42:59 2401.200-2431.200
PCSat 26 Jul 18:38:46 18:43:26 30° 107° (ESE) 18:48:07 145.827
CUBESAT XI-V 26 Jul 18:43:27 18:47:42 37° 286° (WNW) 18:51:57 437.345
CUTE-I 26 Jul 19:00:30 19:05:40 49° 260° (W) 19:10:53 437.470
BRITE-PL 26 Jul 19:04:27 19:07:31 20° 264° (W) 19:10:33 437.365/2234.400
LilacSat-2 26 Jul 19:14:25 19:17:31 23° 263° (W) 19:20:40 437.200
NOAA 15 26 Jul 19:24:29 19:28:16 20° 264° (W) 19:32:04 137.62
NOAA 18 26 Jul 19:32:00 19:36:26 25° 263° (W) 19:40:54 137.9125
SEEDS 26 Jul 19:32:04 19:34:39 16° 70° (ENE) 19:37:12 437.485
BEESAT 3 26 Jul 19:43:40 19:45:44 14° 307° (NW) 19:47:48 437.485
COMPASS 1 26 Jul 19:45:11 19:47:37 15° 70° (ENE) 19:50:03 437.405
BEESAT 2 26 Jul 19:47:11 19:50:22 23° 304° (WNW) 19:53:35 435.950
HO-68 26 Jul 19:56:19 20:03:24 66° 72° (ENE) 20:10:31 435.675
STRAND 1 26 Jul 19:56:27 20:01:30 60° 101° (E) 20:06:31 437.568
CUBEBUG 2 26 Jul 19:56:28 19:59:16 16° 68° (ENE) 20:02:07 437.445
DOVE 4 26 Jul 20:05:26 20:08:48 23° 264° (W) 20:12:18 437.250
AIST 2 26 Jul 20:05:30 20:08:03 16° 109° (ESE) 20:10:36 435.215
Cosmos 2491 26 Jul 20:07:52 20:09:59 11° 79° (ENE) 20:12:05 435.465 / 435.565
CANX-2 26 Jul 20:11:52 20:16:09 89° 71° (ENE) 20:20:26 2200.000
AAUSAT CUBESAT 2 26 Jul 20:12:59 20:16:26 26° 73° (ENE) 20:19:54 437.432
PHONESAT 2.4 26 Jul 20:16:31 20:18:06 13° 4° (N) 20:19:42 2401.200-2431.200
CINEMA 3 26 Jul 20:20:07 20:24:29 68° 259° (W) 20:29:06 145.822/145.860
Oscar 11 26 Jul 20:21:41 20:23:30 12° 68° (ENE) 20:25:18 145.826/435.025
PCSat 26 Jul 20:22:08 20:26:44 28° 302° (WNW) 20:31:21 145.827
CUTE 1.7 + AOD 2 26 Jul 20:25:26 20:29:42 71° 259° (W) 20:33:59 437.475
ISS 26 Jul 20:26:25 20:29:23 34° 130° (SE) 20:32:22 145.825
YUBILEINY 26 Jul 20:41:56 20:50:10 42° 78° (ENE) 20:58:19 435.215
O/OREOS (USA 219) 26 Jul 20:46:01 20:50:28 88° 287° (WNW) 20:54:57 437.305
Cosmos 2504 26 Jul 20:56:07 20:58:38 12° 67° (ENE) 21:01:05 435.465 / 435.565
SEEDS 26 Jul 21:06:16 21:10:02 31° 262° (W) 21:13:48 437.485
UWE-3 26 Jul 21:09:59 21:14:29 80° 76° (ENE) 21:19:07 435.000/436.395/437.385
FUNcube-1 26 Jul 21:11:28 21:15:46 47° 75° (ENE) 21:20:08 145.935
ZACube-1 26 Jul 21:12:01 21:16:22 51° 75° (ENE) 21:20:49 437.345
COMPASS 1 26 Jul 21:19:08 21:22:52 31° 262° (W) 21:26:37 437.405
CUBEBUG 2 26 Jul 21:31:21 21:35:30 37° 262° (W) 21:39:48 437.445
STRAND 1 26 Jul 21:38:05 21:40:05 12° 295° (WNW) 21:42:06 437.568
AIST 2 26 Jul 21:42:36 21:46:13 30° 302° (WNW) 21:49:54 435.215
M-CUBED/EXP-1 PRIME 26 Jul 21:44:22 21:47:52 50° 70° (ENE) 21:51:41 437.505
HO-68 26 Jul 21:46:57 21:51:28 18° 265° (W) 21:56:01 435.675
AAUSAT CUBESAT 2 26 Jul 21:49:00 21:51:51 18° 265° (W) 21:54:42 437.432
PHONESAT 2.4 26 Jul 21:52:31 21:55:15 28° 21° (NNE) 21:57:57 2401.200-2431.200
PRISM 26 Jul 21:53:27 21:57:23 47° 285° (WNW) 22:01:20 437.425
Oscar 11 26 Jul 21:55:04 21:59:11 43° 261° (W) 22:03:20 145.826/435.025
Cosmos 2491 26 Jul 21:56:41 22:05:24 83° 93° (E) 22:14:08 435.465 / 435.565
ISS 26 Jul 22:03:43 22:05:53 16° 324° (NW) 22:08:02 145.825
AUBIESAT-1 26 Jul 22:10:47 22:14:25 85° 251° (WSW) 22:18:24 437.475
DELFI C3 26 Jul 22:14:44 22:18:40 59° 260° (W) 22:22:36 145.870
HUMSAT D 26 Jul 22:31:09 22:35:26 90° 219° (SW) 22:39:46 437.325/437.525
AO-85 26 Jul 22:33:32 22:35:57 15° 51° (NE) 22:38:15 145.980
TIGRISAT 26 Jul 22:34:40 22:38:39 29° 97° (E) 22:42:32 435.000
YUBILEINY 26 Jul 22:39:01 22:46:38 34° 274° (W) 22:54:15 435.215
Cosmos 2504 26 Jul 22:45:07 22:53:11 88° 86° (E) 23:00:38 435.465 / 435.565
UNISAT 6 26 Jul 22:50:29 22:54:57 48° 99° (E) 22:59:17 437.425
FUNcube-1 26 Jul 22:50:35 22:52:11 12° 267° (W) 22:53:46 145.935
ZACube-1 26 Jul 22:51:58 22:52:53 11° 268° (W) 22:53:48 437.345
ESTCUBE 1 26 Jul 23:00:40 23:04:30 28° 72° (ENE) 23:08:20 437.505/2401.250
VELOX 1 26 Jul 23:19:34 23:23:08 25° 71° (ENE) 23:26:44 145.980
SPROUT 26 Jul 23:21:29 23:22:11 10° 67° (ENE) 23:22:53 437.525
CUBEBUG 1 26 Jul 23:21:46 23:25:32 31° 73° (ENE) 23:29:20 437.445
QB50P2 26 Jul 23:22:05 23:24:24 14° 94° (E) 23:26:42 145.880/145.840
POLYITAN 1 26 Jul 23:24:40 23:27:03 15° 95° (E) 23:29:26 437.675
PHONESAT 2.4 26 Jul 23:28:54 23:31:47 38° 214° (SW) 23:34:40 2401.200-2431.200
ANTELSAT 26 Jul 23:28:56 23:33:28 57° 285° (WNW) 23:37:52 437.575/2403.000
50 SAT 26 Jul 23:44:47 23:48:22 54° 76° (ENE) 23:51:57 437.505
JAS-2 26 Jul 23:55:35 23:56:32 10° 95° (E) 23:57:28 435.910
Cosmos 2491 26 Jul 23:58:26 00:03:06 15° 291° (WNW) 00:07:49 435.465 / 435.565
AISAT 27 Jul 00:03:25 00:07:48 85° 259° (W) 00:12:12 437.250
DX 1 27 Jul 00:04:44 00:09:00 66° 75° (ENE) 00:13:18 434.975-435.025
NANOSAT C BR1 27 Jul 00:06:43 00:10:51 47° 100° (E) 00:14:56 145.865
DUCHIFAT 1 27 Jul 00:11:12 00:15:20 49° 100° (E) 00:19:27 145.980
TIGRISAT 27 Jul 00:11:44 00:15:05 20° 290° (WNW) 00:18:22 435.000
AO-85 27 Jul 00:12:43 00:16:33 36° 248° (WSW) 00:20:09 145.980
TISAT 1 27 Jul 00:18:33 00:19:10 10° 67° (ENE) 00:19:46 437.305
UKube-1 27 Jul 00:19:11 00:23:27 77° 78° (ENE) 00:27:46 .
BUGSAT 1 27 Jul 00:27:46 00:31:34 31° 98° (E) 00:35:21 437.445
QB50P1 27 Jul 00:28:45 00:33:03 83° 284° (WNW) 00:37:19 145.935-145.965
UNISAT 6 27 Jul 00:29:15 00:31:08 12° 293° (WNW) 00:33:00 437.425
POPSAT HIP 1 27 Jul 00:35:11 00:39:28 70° 283° (WNW) 00:43:42 437.405
ESTCUBE 1 27 Jul 00:38:00 00:41:15 19° 264° (W) 00:44:29 437.505/2401.250
Cosmos 2504 27 Jul 00:42:57 00:45:10 11° 281° (WNW) 00:47:20 435.465 / 435.565
AIST 1 27 Jul 00:48:06 00:52:24 59° 83° (E) 00:56:42
SPROUT 27 Jul 00:53:30 00:57:37 50° 260° (W) 01:01:47 437.525
VELOX 1 27 Jul 00:56:14 00:59:30 21° 264° (W) 01:02:47 145.980
QB50P2 27 Jul 00:56:22 01:00:14 34° 287° (WNW) 01:04:06 145.880/145.840
POLYITAN 1 27 Jul 00:59:01 01:02:53 33° 287° (WNW) 01:06:44 437.675
CUBEBUG 1 27 Jul 00:59:09 01:01:49 16° 265° (W) 01:04:30 437.445
JUGNU 27 Jul 01:23:52 01:28:10 20° 167° (SSE) 01:32:28 437.505
JAS-2 27 Jul 01:36:27 01:41:48 70° 284° (WNW) 01:47:43 435.910
SWISSCUBE 27 Jul 01:40:58 01:44:35 22° 70° (ENE) 01:48:13 437.505
NANOSAT C BR1 27 Jul 01:44:55 01:46:05 11° 293° (WNW) 01:47:16 145.865
Cosmos 2499 27 Jul 01:48:53 01:51:54 13° 68° (ENE) 01:54:51 435.465 / 435.565
DUCHIFAT 1 27 Jul 01:49:49 01:50:32 10° 293° (WNW) 01:51:13 145.980
TISAT 1 27 Jul 01:50:17 01:54:19 48° 260° (W) 01:58:24 437.305
BEESAT 27 Jul 02:01:39 02:05:54 33° 72° (ENE) 02:10:10 436.000
BUGSAT 1 27 Jul 02:04:01 02:06:38 16° 290° (WNW) 02:09:15 437.445
Gurwin Techsat 1B 27 Jul 02:11:13 02:15:43 27° 97° (E) 02:20:11 435.225
ITUPSAT 1 27 Jul 02:24:01 02:28:44 58° 75° (ENE) 02:33:27 437.325
ITAMSAT 1 27 Jul 02:30:22 02:31:33 11° 93° (E) 02:32:45 435.822/435.867
Oscar 19 27 Jul 02:32:25 02:37:34 71° 285° (WNW) 02:42:43 437.125/150
GONETS M04 27 Jul 02:45:42 02:54:25 62° 82° (E) 03:03:07
MOZHAYETS 4 27 Jul 02:49:04 02:49:38 10° 66° (ENE) 02:50:13
JUGNU 27 Jul 03:11:38 03:16:41 29° 177° (S) 03:21:43 437.505
SWISSCUBE 27 Jul 03:17:59 03:22:08 29° 262° (W) 03:26:19 437.505
CUSAT 1 27 Jul 03:33:45 03:38:22 47° 97° (E) 03:41:54 437.405
Cosmos 2499 27 Jul 03:38:18 03:46:01 83° 266° (W) 03:53:11 435.465 / 435.565
SRMSAT 27 Jul 03:40:07 03:44:21 20° 167° (SSE) 03:48:34 437.500
BEESAT 27 Jul 03:40:18 03:43:40 19° 264° (W) 03:47:03 436.000
KKS-1 27 Jul 03:49:10 03:53:27 52° 75° (ENE) 03:57:47 437.445
Gurwin Techsat 1B 27 Jul 03:51:04 03:55:31 28° 290° (WNW) 03:59:58 435.225
DANDE 27 Jul 03:52:51 03:58:20 32° 96° (E) 04:02:40 436.750
AO-7 27 Jul 03:58:05 04:05:52 42° 101° (E) 04:13:33 29.400- 29.500
BEESAT 3 27 Jul 04:03:49 04:07:43 58° 61° (ENE) 04:11:36 437.485
ITUPSAT 1 27 Jul 04:06:04 04:06:49 10° 267° (W) 04:07:34 437.325
ITAMSAT 1 27 Jul 04:06:13 04:11:21 64° 285° (WNW) 04:16:26 435.822/435.867
BEESAT 2 27 Jul 04:09:39 04:13:17 32° 59° (ENE) 04:16:53 435.950
MOZHAYETS 4 27 Jul 04:21:39 04:26:14 60° 259° (W) 04:30:49
STARS 27 Jul 04:28:23 04:32:44 72° 76° (ENE) 04:37:07 437.465
ISS 27 Jul 04:34:29 04:37:30 34° 42° (NE) 04:40:30 145.825
GONETS M04 27 Jul 04:44:10 04:50:26 22° 277° (W) 04:56:44
JUGNU 27 Jul 05:00:20 05:05:13 26° 187° (S) 05:10:05 437.505
HORYU 2 27 Jul 05:10:14 05:14:00 27° 97° (E) 05:17:45 437.375
PCSat 27 Jul 05:14:34 05:20:00 72° 65° (ENE) 05:25:22 145.827
SRMSAT 27 Jul 05:28:01 05:33:00 28° 177° (S) 05:37:59 437.500
BRITE-PL 27 Jul 05:35:35 05:38:19 14° 95° (E) 05:41:07 437.365/2234.400
DANDE 27 Jul 05:36:16 05:40:54 22° 279° (W) 05:44:43 436.750
CUBESAT XI-V 27 Jul 05:40:29 05:45:06 76° 259° (W) 05:49:43 437.345
BEESAT 2 27 Jul 05:48:38 05:50:46 14° 251° (WSW) 05:52:55 435.950
AO-7 27 Jul 05:51:02 05:58:22 36° 296° (WNW) 06:05:41 29.400- 29.500
NOAA 15 27 Jul 06:04:56 06:08:59 22° 96° (E) 06:13:02 137.62
AIST 2 27 Jul 06:08:51 06:12:32 29° 58° (ENE) 06:16:11 435.215
ISS 27 Jul 06:11:56 06:13:40 14° 234° (SW) 06:15:23 145.825
NOAA 18 27 Jul 06:19:05 06:23:23 23° 97° (E) 06:27:38 137.9125
RS-15 27 Jul 06:27:13 06:38:14 63° 111° (ESE) 06:49:52 29.354- 29.394
DOVE 4 27 Jul 06:33:32 06:35:12 11° 92° (E) 06:36:51 437.250
GOMX 1 27 Jul 06:37:08 06:41:41 31° 98° (E) 06:46:25 467.674
HORYU 2 27 Jul 06:47:03 06:50:21 21° 290° (WNW) 06:53:38 437.375
JUGNU 27 Jul 06:50:09 06:53:40 16° 196° (SSW) 06:57:11 437.505
LilacSat-2 27 Jul 06:52:31 06:56:18 53° 100° (E) 07:00:01 437.200
Cubesat XI-IV 27 Jul 06:59:27 07:04:45 61° 101° (ESE) 07:10:00 437.490
O/OREOS (USA 219) 27 Jul 07:01:30 07:06:02 69° 71° (ENE) 07:10:34 437.305
PCSat 27 Jul 07:01:55 07:02:41 10° 258° (WSW) 07:03:26 145.827
SO-50 27 Jul 07:06:27 07:10:13 23° 110° (ESE) 07:14:00 436.795
STRAND 1 27 Jul 07:06:40 07:11:36 48° 73° (ENE) 07:16:32 437.568
BRITE-PL 27 Jul 07:12:04 07:16:49 49° 285° (WNW) 07:21:57 437.365/2234.400
SRMSAT 27 Jul 07:16:50 07:21:41 26° 187° (S) 07:26:32 437.500
CUTE-I 27 Jul 07:23:07 07:28:28 76° 284° (WNW) 07:33:45 437.470
HO-68 27 Jul 07:32:34 07:36:40 16° 94° (E) 07:40:43 435.675
NOAA 15 27 Jul 07:44:02 07:48:44 34° 289° (WNW) 07:53:26 137.62
AIST 2 27 Jul 07:47:56 07:50:45 18° 251° (WSW) 07:53:33 435.215
NOAA 18 27 Jul 07:59:01 08:04:01 36° 289° (WNW) 08:08:59 137.9125
CANX-2 27 Jul 08:03:11 08:06:32 23° 96° (E) 08:09:52 2200.000
DOVE 4 27 Jul 08:07:57 08:13:07 65° 283° (WNW) 08:18:21 437.250
Cosmos 2491 27 Jul 08:14:46 08:22:20 32° 76° (ENE) 08:29:52 435.465 / 435.565
GOMX 1 27 Jul 08:15:22 08:19:33 26° 288° (WNW) 08:23:54 467.674
CUTE 1.7 + AOD 2 27 Jul 08:16:22 08:20:01 28° 97° (E) 08:23:38 437.475
CINEMA 3 27 Jul 08:20:14 08:25:05 47° 99° (E) 08:29:49 145.822/145.860
PRISM 27 Jul 08:37:00 08:40:58 52° 75° (ENE) 08:44:56 437.425
RS-15 27 Jul 08:41:15 08:51:18 34° 312° (NW) 09:01:55 29.354- 29.394
Cubesat XI-IV 27 Jul 08:41:47 08:44:13 13° 295° (WNW) 08:46:39 437.490
SO-50 27 Jul 08:46:08 08:50:29 32° 303° (WNW) 08:54:52 436.795
STRAND 1 27 Jul 08:48:07 08:50:56 15° 266° (W) 08:53:45 437.568
SEEDS 27 Jul 08:55:10 08:59:18 63° 100° (E) 09:03:24 437.485
UWE-3 27 Jul 09:06:04 09:09:49 25° 96° (E) 09:13:29 435.000/436.395/437.385
SRMSAT 27 Jul 09:06:45 09:10:18 16° 196° (SSW) 09:13:51 437.500
FUNcube-1 27 Jul 09:06:55 09:09:12 14° 93° (E) 09:11:27 145.935
COMPASS 1 27 Jul 09:06:59 09:11:03 58° 99° (E) 09:15:07 437.405
ZACube-1 27 Jul 09:07:32 09:10:11 15° 94° (E) 09:12:48 437.345
HO-68 27 Jul 09:17:38 09:24:48 72° 287° (WNW) 09:31:55 435.675
Cosmos 2504 27 Jul 09:27:22 09:30:54 13° 79° (E) 09:34:25 435.465 / 435.565
CUBEBUG 2 27 Jul 09:27:29 09:32:10 74° 100° (E) 09:36:42 437.445
TIGRISAT 27 Jul 09:29:05 09:31:26 14° 68° (ENE) 09:33:49 435.000
YUBILEINY 27 Jul 09:35:10 09:43:39 58° 91° (E) 09:52:13 435.215
AAUSAT CUBESAT 2 27 Jul 09:35:16 09:39:22 76° 283° (WNW) 09:43:28 437.432
CANX-2 27 Jul 09:39:05 09:42:13 21° 289° (WNW) 09:45:21 2200.000
UNISAT 6 27 Jul 09:44:06 09:47:40 23° 70° (ENE) 09:51:17 437.425
Oscar 11 27 Jul 09:47:39 09:51:51 50° 100° (E) 09:56:01 145.826/435.025
CUTE 1.7 + AOD 2 27 Jul 09:52:53 09:55:35 17° 290° (WNW) 09:58:16 437.475
AUBIESAT-1 27 Jul 09:56:22 09:58:35 13° 98° (E) 10:00:46 437.475
DELFI C3 27 Jul 09:58:17 10:01:32 25° 97° (E) 10:04:47 145.870
CINEMA 3 27 Jul 09:58:49 10:01:43 16° 292° (WNW) 10:04:36 145.822/145.860
Cosmos 2491 27 Jul 10:11:02 10:19:11 45° 271° (W) 10:27:22 435.465 / 435.565
HUMSAT D 27 Jul 10:21:04 10:24:16 21° 96° (E) 10:27:25 437.325/437.525
ANTELSAT 27 Jul 10:21:27 10:25:58 62° 75° (ENE) 10:30:35 437.575/2403.000
FUNcube-1 27 Jul 10:41:27 10:45:33 37° 286° (WNW) 10:49:32 145.935
ZACube-1 27 Jul 10:42:30 10:46:31 33° 287° (WNW) 10:50:26 437.345
UWE-3 27 Jul 10:42:33 10:46:05 22° 290° (WNW) 10:49:32 435.000/436.395/437.385
NANOSAT C BR1 27 Jul 10:54:24 10:57:10 17° 70° (ENE) 10:59:56 145.865
DUCHIFAT 1 27 Jul 10:58:32 11:01:23 18° 70° (ENE) 11:04:14 145.980
M-CUBED/EXP-1 PRIME 27 Jul 11:02:27 11:07:11 79° 288° (WNW) 11:11:49 437.505
TIGRISAT 27 Jul 11:03:18 11:07:39 44° 261° (W) 11:12:07 435.000
Cosmos 2504 27 Jul 11:14:08 11:22:56 86° 94° (E) 11:31:52 435.465 / 435.565
BUGSAT 1 27 Jul 11:15:01 11:15:39 10° 67° (ENE) 11:16:17 437.445
QB50P1 27 Jul 11:15:42 11:19:29 33° 73° (ENE) 11:23:20 145.935-145.965
UNISAT 6 27 Jul 11:20:19 11:24:10 26° 263° (W) 11:28:06 437.425
POPSAT HIP 1 27 Jul 11:22:00 11:25:56 39° 74° (ENE) 11:29:54 437.405
Oscar 11 27 Jul 11:26:51 11:27:28 10° 293° (WNW) 11:28:05 145.826/435.025
AUBIESAT-1 27 Jul 11:28:42 11:33:10 47° 290° (WNW) 11:37:33 437.475
DELFI C3 27 Jul 11:33:37 11:36:09 17° 289° (WNW) 11:38:41 145.870
YUBILEINY 27 Jul 11:34:01 11:40:48 25° 287° (WNW) 11:47:40 435.215
QB50P2 27 Jul 11:42:38 11:46:52 81° 77° (ENE) 11:51:08 145.880/145.840
JAS-2 27 Jul 11:43:53 11:48:50 26° 71° (ENE) 11:53:23 435.910
POLYITAN 1 27 Jul 11:45:15 11:49:30 83° 77° (ENE) 11:53:47 437.675
HUMSAT D 27 Jul 11:56:33 11:59:45 22° 289° (WNW) 12:02:53 437.325/437.525
DX 1 27 Jul 11:59:29 12:02:27 18° 96° (E) 12:05:26 434.975-435.025
AISAT 27 Jul 11:59:32 12:03:21 28° 98° (E) 12:07:11 437.250
UKube-1 27 Jul 12:12:42 12:15:52 20° 96° (E) 12:19:02 .
NANOSAT C BR1 27 Jul 12:28:57 12:32:37 29° 262° (W) 12:36:19 145.865
DUCHIFAT 1 27 Jul 12:33:13 12:36:49 27° 263° (W) 12:40:27 145.980
ESTCUBE 1 27 Jul 12:34:37 12:39:01 59° 285° (WNW) 12:43:26 437.505/2401.250
AO-85 27 Jul 12:40:43 12:44:53 23° 109° (ESE) 12:49:00 145.980
SPROUT 27 Jul 12:44:57 12:49:02 41° 99° (E) 12:53:05 437.525
BUGSAT 1 27 Jul 12:46:40 12:50:32 45° 260° (W) 12:54:29 437.445
VELOX 1 27 Jul 12:50:29 12:54:55 72° 284° (WNW) 12:59:21 145.980
CUBEBUG 1 27 Jul 12:51:19 12:55:38 57° 285° (WNW) 12:59:58 437.445
50 SAT 27 Jul 12:52:20 12:55:48 48° 284° (WNW) 12:59:16 437.505
QB50P1 27 Jul 12:52:59 12:55:18 14° 265° (W) 12:57:39 145.935-145.965
POPSAT HIP 1 27 Jul 13:00:08 13:01:49 12° 266° (W) 13:03:32 437.405
AIST 1 27 Jul 13:11:32 13:15:33 44° 93° (E) 13:19:37
Cosmos 2504 27 Jul 13:12:13 13:17:13 16° 290° (WNW) 13:22:15 435.465 / 435.565
RS-15 27 Jul 13:26:11 13:30:47 12° 25° (NNE) 13:35:23 29.354- 29.394
Gurwin Techsat 1B 27 Jul 13:27:02 13:31:21 26° 69° (ENE) 13:35:40 435.225
JAS-2 27 Jul 13:28:01 13:33:44 35° 260° (W) 13:38:54 435.910
DX 1 27 Jul 13:34:50 13:38:36 29° 288° (WNW) 13:42:22 434.975-435.025
AISAT 27 Jul 13:36:23 13:39:36 20° 290° (WNW) 13:42:49 437.250
TISAT 1 27 Jul 13:39:42 13:43:40 37° 99° (E) 13:47:36 437.305
Oscar 19 27 Jul 13:43:30 13:48:36 87° 257° (WSW) 13:53:45 437.125/150
ITAMSAT 1 27 Jul 13:43:58 13:44:45 10° 64° (ENE) 13:45:34 435.822/435.867
UKube-1 27 Jul 13:48:14 13:51:49 26° 289° (WNW) 13:55:23 .
GONETS M04 27 Jul 13:50:24 13:52:32 11° 79° (ENE) 13:54:41
BEESAT 27 Jul 14:09:00 14:11:09 13° 94° (E) 14:13:18 436.000
CUSAT 1 27 Jul 14:12:37 14:14:17 13° 81° (E) 14:16:06 437.405
